Preview of NWS' New Version of Forecast
This preview is not operational and should not be used for support decisions.

Regional Weather Roundup (RWR)

Issued by National Weather Service (NWS)

                            
000
ASUS46 KSEW 220310
RWRWA 

WASHINGTON REGIONAL WEATHER ROUNDUP
NATIONAL WEATHER SERVICE SEATTLE WA
800 PM PDT WED AUG 21 2019

NOTE:"FAIR" INDICATES FEW OR NO CLOUDS BELOW 12,000 FEET WITH NO 
SIGNIFICANT WEATHER AND/OR OBSTRUCTIONS TO VISIBILITY.

WAZ507-509-555>559-220400-
SEATTLE, TACOMA, EVERETT, AND VICINITY
  
CITY           SKY/WX    TMP DP  RH WIND       PRES   REMARKS
EVERETT        CLOUDY    58  55  90 N6        30.00S                  
BOEING FIELD   CLOUDY    64  60  87 NW6       29.98R                  
RENTON         CLOUDY    66  64  93 NW5       29.97S FOG              
SEATAC AIRPORT LGT RAIN  65  62  90 NW5       29.98S                  
JBLM-MCCHORD   DRIZZLE   66  63  88 CALM      29.97R                  
PUYALLUP       CLOUDY    66  66 100 CALM      29.98S                  
BREMERTON      LGT RAIN  63  61  94 NE10      29.99R                  
JBLM-FT LEWIS  NOT AVBL                                               
TACOMA NARROWS LGT RAIN  63  63 100 CALM      29.97S FOG              
$$
 
WAZ001-503-506-510-514-515-220400-
NORTH INTERIOR
  
CITY           SKY/WX    TMP DP  RH WIND       PRES   REMARKS
BELLINGHAM     PTCLDY    62  58  86 S7        29.97R                  
FRIDAY HARBOR  CLEAR     56  53  90 CALM      29.98R                  
EASTSOUND      PTCLDY    61  59  94 S9        29.96R                  
PORT ANGELES   PTCLDY    57  51  80 W12       30.01R                  
EDIZ HOOK      FAIR      57  50  77 W18       30.00R                  
PORT TOWNSEND  CLOUDY    61  54  77 W7        29.98S                  
NAS WHIDBEY    MOCLDY    60  51  72 SW7       30.03R                  
ARLINGTON      CLOUDY    59  56  89 W8        30.00R                  
BURLINGTON     CLOUDY    61  57  88 SW8       30.00R                  
$$
 
WAZ020-022-039-040-504-511-512-220400-
SOUTHWEST INTERIOR
  
CITY           SKY/WX    TMP DP  RH WIND       PRES   REMARKS
SHELTON        CLOUDY    67  63  87 W9        29.95R                  
OLYMPIA        CLOUDY    66  62  87 SW8       29.97R                  
CHEHALIS       CLOUDY    66  63  88 VRB3      30.00R                  
KELSO          CLOUDY    64  61  90 W6        30.02R                  
VANCOUVER      LGT RAIN  66  63  90 NE3       30.00R FOG              
SCAPPOOSE, OR  CLOUDY    65  63  93 CALM      29.99R                  
PORTLAND, OR   LGT RAIN  66  62  87 NE3       30.00R FOG              
$$
 
WAZ021-516-517-220400-
WASHINGTON COAST
  
CITY           SKY/WX    TMP DP  RH WIND       PRES   REMARKS
FORKS          CLEAR     57  51  80 W5        30.04R                  
HOQUIAM        MOCLDY    60  55  83 NW14G22   30.02R                  
ASTORIA, OR    CLOUDY    61  54  77 NW15      30.04R                  
$$
 
WAZ019-023-024-040-567>569-220400-
CASCADE MOUNTAINS AND COLUMBIA GORGE
  
CITY           SKY/WX    TMP DP  RH WIND       PRES   REMARKS
STAMPEDE PASS  LGT RAIN  56  54  93 CALM      30.04R VSB 1/4          
TROUTDALE, OR  LGT RAIN  66  63  90 CALM      30.00R FOG              
HOOD RIVER, OR LGT RAIN  64  59  82 W5G17     29.97S                  
THE DALLES, OR CLOUDY    69  59  70 W12       29.94R                  
$$

WAZ026-027-041>044-520-521-220400-
EAST SLOPES
  
CITY           SKY/WX    TMP DP  RH WIND       PRES   REMARKS
OMAK           CLOUDY    77  49  37 VRB3      29.81R                  
WENATCHEE      MOCLDY    73  53  49 NW8       29.86R                  
ELLENSBURG     MOCLDY    70  55  59 NW16G22   29.91S                  
YAKIMA         MOCLDY    69  56  62 CALM      29.89S                  
SUNNYSIDE ARPT MOCLDY    67  64  90 E6        29.89R                  
YAKIMA TC      FAIR      70  52  52 CALM      29.88S                  
$$

WAZ028-034-035-220400-
COLUMBIA BASIN
  
CITY           SKY/WX    TMP DP  RH WIND       PRES   REMARKS
EPHRATA        LGT RAIN  67  62  84 W6        29.87S                  
MOSES LAKE     CLOUDY    69  60  73 SW10      29.87F                  
PASCO          CLOUDY    70  59  68 S12       29.89R                  
RICHLAND ARPT  CLOUDY    70  60  71 S10       29.88                   
HERMISTON, OR  CLOUDY    65  61  87 S9        29.91F                  
$$

WAZ036>038-220400-
NORTHEAST WASHINGTON
  
CITY           SKY/WX    TMP DP  RH WIND       PRES   REMARKS
SPOKANE GEIGER CLOUDY    75  44  33 W16       29.88R                  
SPOKANE FELTS  CLOUDY    78  45  30 W7        29.86R                  
FAIRCHILD AFB  CLOUDY    73  46  38 W20       29.89R                  
COEURDALENE,ID CLOUDY    76  39  26 W8        29.87R                  
DEER PARK      CLOUDY    76  42  29 SW13      29.86R                  
$$

WAZ029>033-220400-
SOUTHEAST WASHINGTON
  
CITY           SKY/WX    TMP DP  RH WIND       PRES   REMARKS
PULLMAN        CLOUDY    74  48  39 W21       29.94R                  
LEWISTON, ID   CLOUDY    78  50  37 W17G25    29.86R                  
WALLA WALLA    LGT RAIN  66  59  78 S18       29.97R                  
PENDLETON, OR  LGT RAIN  64  60  87 SE5       29.96S                  
$$